User: anonymous   Login
Location: Unspecified
(0.0000°N, 0.0000°E)
Time: 19:04:23
(UTC+00:00)
Language:

QIANFAN-91 - Orbit

View from above orbital plane
View from above orbital plane
View from above satellite
View from above satellite

Ground track
Ground track

The orbit is defined by the following mean orbital elements,

1 66033U          26145.47002220 +.00000000 +00000-0 +17531-3 0 00006
2 66033  89.0020  45.4848 0002102  67.9378 292.1996 13.51005713    01
Epoch (UTC): 25 May 2026 11:16:49
Eccentricity: 0.0002102
inclination: 89.0020°
perigee height: 1067 km
apogee height: 1070 km
right ascension of ascending node: 45.4848°
argument of perigee: 67.9378°
revolutions per day: 13.51005713
mean anomaly at epoch: 292.1996°

The dashed part of the orbit path shows where the satellite is in the earth's shadow,  

DLR